Tracking 17143 objects as of 25-May-2015
HD Live streaming from Space Station

ACRIMSAT

Track ACRIMSAT now!
10-day predictions
ACRIMSAT is classified as:


NORAD ID: 26033
Int'l Code: 1999-070B
Perigee: 674.8 km
Apogee: 713.8 km
Inclination: 97.8 °
Period: 98.5 minutes
Semi major axis: 7065 km
RCS: 0.514 m2 (medium)
Launch date: December 21, 1999
Source: United States (US)

Monitor total solar irradiance (TSI) with maximum precision; ascertain the extent of solar radiation variability.
Your satellite tracking list
Your tracking list is empty





NASA's NSSDC Master Catalog

Two Line Element Set (TLE):
1 26033U 99070B   15145.08973055  .00000243  00000-0  57327-4 0  9999
2 26033 097.8380 310.0774 0027575 201.8147 158.1883 14.61864933822070

Source of the keplerian elements: AFSPC

N2YO: 310